User: anonymous
Location: Unspecified
(0.0000°N, 0.0000°E)
Time: 21:14:08
(UTC+02:00)
Language:

Ariane H10 - Orbit

View from above orbital plane
View from above orbital plane
View from above satellite
View from above satellite

Ground track
Ground track

The orbit data is extracted from the following two-line orbital elements,

1 19622U 88098B   14207.15646782  .00003185  00000-0  80863-3 0  8293
2 19622 003.8583 155.6887 6471477 276.5415 293.8473 03.35069990268281
Epoch (UTC): 26 July 2014 03:45:18
Eccentricity: 0.6471477
inclination: 3.8583°
perigee height: 278 km
apogee height: 24694 km
right ascension of ascending node: 155.6887°
argument of perigee: 276.5415°
revolutions per day: 3.35069990
mean anomaly at epoch: 293.8473°
orbit number at epoch: 26828

The dashed part of the orbit path shows where the satellite is in the earth's shadow,  

DLR